Weather History for Wahpeton, ND

Change the Weather History Date:

Sunday, October 2, 2011

  Actual Average (KFFM) Record (KFFM)
Temperature  
Mean Temperature 64 °F -  
Max Temperature 82 °F 64 °F 92 °F (1953)
Min Temperature 46 °F 39 °F 21 °F (1974)
Degree Days  
Heating Degree Days 1    
Growing Degree Days 14 (Base 50)    
Moisture  
Dew Point 35 °F    
Average Humidity 39    
Maximum Humidity 62    
Minimum Humidity 19    
Precipitation  
Precipitation 0.00 in - - ()
Sea Level Pressure  
Sea Level Pressure 30.03 in    
Wind  
Wind Speed 10 mph (SSE)    
Max Wind Speed 14 mph    
Max Gust Speed 18 mph    
Visibility 10 miles    
Events      
Averages and records for this station are not official NWS values.
T = Trace of Precipitation, MM = Missing Value Source: NWS Daily Summary

Daily Weather History Graph

Daily Weather History Graph

Search for Another Location

Airport:

Trip Planner

Search our weather history database for the weather conditions in past years. The results will help you decide how hot, cold, wet, or windy it might be!

Date:

Astronomy

Oct. 02, 2011 Rise Set
Actual Time 7:25 AM CDT 7:04 PM CDT
Civil Twilight 6:56 AM CDT 7:34 PM CDT
Nautical Twilight 6:21 AM CDT 8:09 PM CDT
Astronomical Twilight 5:45 AM CDT 8:44 PM CDT
Moon 1:53 PM CDT (10/2) 10:45 PM CDT (10/2)
Length of Visible Light 12h 38m
Length of Day
11h 38m
Waxing Crescent, 35% of the Moon is Illuminated
Oct 2
Waxing Crescent
Oct 3
First Quarter
Oct 11
Full
Oct 19
Last Quarter
Oct 26
New

Hourly Weather History & Observations

Time (CDT) Temp. Windchill Dew Point Humidity Pressure Visibility Wind Dir Wind Speed Gust Speed Precip Events Conditions
12:15 AM 53.6 °F - 33.8 °F 47% 30.05 in 10.0 mi SSE 10.4 mph - N/A   Clear
12:35 AM 53.6 °F - 33.8 °F 47% 30.05 in 10.0 mi SSE 9.2 mph - N/A   Clear
12:55 AM 53.6 °F - 33.8 °F 47% 30.05 in 10.0 mi SSE 9.2 mph - N/A   Clear
1:15 AM 53.6 °F - 33.8 °F 47% 30.05 in 10.0 mi SSE 10.4 mph - N/A   Clear
1:35 AM 51.8 °F - 33.8 °F 50% 30.05 in 10.0 mi SSE 9.2 mph - N/A   Clear
2:15 AM 51.8 °F - 33.8 °F 50% 30.05 in 10.0 mi SSE 10.4 mph - N/A   Clear
2:35 AM 51.8 °F - 33.8 °F 50% 30.05 in 10.0 mi SSE 12.7 mph - N/A   Clear
3:15 AM 50.0 °F - 33.8 °F 54% 30.05 in 10.0 mi SSE 11.5 mph - N/A   Clear
3:35 AM 50.0 °F - 33.8 °F 54% 30.04 in 10.0 mi SSE 11.5 mph - N/A   Clear
3:55 AM 50.0 °F - 33.8 °F 54% 30.05 in 10.0 mi SE 8.1 mph - N/A   Clear
4:15 AM 50.0 °F - 33.8 °F 54% 30.05 in 10.0 mi SE 8.1 mph - N/A   Clear
4:35 AM 50.0 °F - 33.8 °F 54% 30.05 in 10.0 mi SE 8.1 mph - N/A   Clear
4:55 AM 50.0 °F - 33.8 °F 54% 30.06 in 10.0 mi SE 10.4 mph - N/A   Clear
5:15 AM 50.0 °F - 33.8 °F 54% 30.06 in 10.0 mi SE 10.4 mph - N/A   Clear
5:35 AM 48.2 °F - 33.8 °F 58% 30.05 in 10.0 mi SE 12.7 mph - N/A   Clear
5:55 AM 48.2 °F - 33.8 °F 58% 30.06 in 10.0 mi SE 11.5 mph - N/A   Clear
6:15 AM 48.2 °F - 33.8 °F 58% 30.05 in 10.0 mi SSE 12.7 mph 17.3 mph N/A   Clear
6:35 AM 48.2 °F - 33.8 °F 58% 30.06 in 10.0 mi SSE 12.7 mph - N/A   Clear
6:55 AM 48.2 °F - 33.8 °F 58% 30.05 in 10.0 mi SSE 11.5 mph - N/A   Clear
7:15 AM 46.4 °F 41.5 °F 33.8 °F 62% 30.06 in 10.0 mi SSE 10.4 mph - N/A   Clear
7:35 AM 46.4 °F 41.9 °F 33.8 °F 62% 30.06 in 10.0 mi SE 9.2 mph - N/A   Clear
7:55 AM 48.2 °F - 33.8 °F 58% 30.06 in 10.0 mi SSE 11.5 mph - N/A   Clear
8:15 AM 48.2 °F - 33.8 °F 58% 30.06 in 10.0 mi SE 11.5 mph - N/A   Clear
8:35 AM 50.0 °F - 35.6 °F 58% 30.06 in 10.0 mi SSE 9.2 mph - N/A   Clear
8:55 AM 51.8 °F - 35.6 °F 54% 30.06 in 10.0 mi SSE 9.2 mph - N/A   Clear
9:15 AM 53.6 °F - 35.6 °F 51% 30.05 in 10.0 mi SSE 10.4 mph - N/A   Clear
9:35 AM 55.4 °F - 35.6 °F 47% 30.06 in 10.0 mi SSE 10.4 mph - N/A   Clear
10:15 AM 59.0 °F - 35.6 °F 42% 30.06 in 10.0 mi SSE 9.2 mph - N/A   Clear
10:35 AM 60.8 °F - 37.4 °F 42% 30.06 in 10.0 mi SSE 9.2 mph - N/A   Clear
10:55 AM 64.4 °F - 35.6 °F 34% 30.05 in 10.0 mi SSE 11.5 mph - N/A   Clear
11:15 AM 64.4 °F - 35.6 °F 34% 30.05 in 10.0 mi South 11.5 mph - N/A   Clear
11:35 AM 68.0 °F - 35.6 °F 30% 30.05 in 10.0 mi South 11.5 mph - N/A   Clear
11:55 AM 69.8 °F - 35.6 °F 28% 30.05 in 10.0 mi SSE 10.4 mph - N/A   Clear
12:15 PM 69.8 °F - 35.6 °F 28% 30.05 in 10.0 mi SSE 9.2 mph - N/A   Clear
12:35 PM 71.6 °F - 37.4 °F 29% 30.05 in 10.0 mi SSE 8.1 mph - N/A   Clear
12:55 PM 73.4 °F - 37.4 °F 27% 30.04 in 10.0 mi South 10.4 mph 16.1 mph N/A   Clear
1:15 PM 75.2 °F - 35.6 °F 24% 30.04 in 10.0 mi South 10.4 mph - N/A   Clear
1:35 PM 77.0 °F - 35.6 °F 22% 30.03 in 10.0 mi SSE 9.2 mph 16.1 mph N/A   Clear
2:15 PM 78.8 °F - 37.4 °F 23% 30.01 in 10.0 mi South 11.5 mph - N/A   Clear
2:35 PM 80.6 °F - 37.4 °F 21% 30.01 in 10.0 mi SSE 12.7 mph - N/A   Clear
2:55 PM 80.6 °F - 37.4 °F 21% 30.01 in 10.0 mi South 13.8 mph - N/A   Clear
3:15 PM 82.4 °F - 37.4 °F 20% 30.01 in 10.0 mi South 12.7 mph - N/A   Clear
3:35 PM 82.4 °F - 35.6 °F 19% 30.00 in 10.0 mi SSE 13.8 mph - N/A   Clear
4:15 PM 82.4 °F - 35.6 °F 19% 29.99 in 10.0 mi South 12.7 mph 18.4 mph N/A   Clear
4:55 PM 82.4 °F - 35.6 °F 19% 29.99 in 10.0 mi South 11.5 mph 17.3 mph N/A   Clear
5:15 PM 82.4 °F - 35.6 °F 19% 29.99 in 10.0 mi SSE 12.7 mph - N/A   Clear
5:35 PM 82.4 °F - 35.6 °F 19% 29.99 in 10.0 mi SSE 12.7 mph - N/A   Clear
5:55 PM 82.4 °F - 35.6 °F 19% 29.99 in 10.0 mi SSE 10.4 mph - N/A   Clear
6:15 PM 80.6 °F - 35.6 °F 20% 29.99 in 10.0 mi SSE 8.1 mph - N/A   Clear
6:35 PM 78.8 °F - 37.4 °F 23% 29.99 in 10.0 mi SSE 9.2 mph - N/A   Clear
6:55 PM 77.0 °F - 37.4 °F 24% 29.99 in 10.0 mi SSE 9.2 mph - N/A   Clear
7:15 PM 73.4 °F - 35.6 °F 25% 29.99 in 10.0 mi SSE 8.1 mph - N/A   Clear
7:35 PM 73.4 °F - 35.6 °F 25% 29.99 in 10.0 mi SSE 8.1 mph - N/A   Clear
7:55 PM 69.8 °F - 35.6 °F 28% 30.00 in 10.0 mi SSE 6.9 mph - N/A   Clear
8:15 PM 69.8 °F - 35.6 °F 28% 30.00 in 10.0 mi SSE 8.1 mph - N/A   Clear
8:35 PM 68.0 °F - 35.6 °F 30% 30.00 in 10.0 mi SSE 8.1 mph - N/A   Clear
8:55 PM 66.2 °F - 37.4 °F 35% 30.00 in 10.0 mi SSE 6.9 mph - N/A   Clear
9:15 PM 64.4 °F - 37.4 °F 37% 30.01 in 10.0 mi SE 8.1 mph - N/A   Clear
9:35 PM 62.6 °F - 37.4 °F 39% 30.01 in 10.0 mi SSE 8.1 mph - N/A   Clear
10:15 PM 60.8 °F - 37.4 °F 42% 30.02 in 10.0 mi SSE 8.1 mph - N/A   Clear
10:35 PM 60.8 °F - 37.4 °F 42% 30.02 in 10.0 mi SSE 6.9 mph - N/A   Clear
10:55 PM 59.0 °F - 37.4 °F 45% 30.03 in 10.0 mi SSE 8.1 mph - N/A   Clear
11:15 PM 59.0 °F - 37.4 °F 45% 30.03 in 10.0 mi SE 8.1 mph - N/A   Clear
11:35 PM 59.0 °F - 37.4 °F 45% 30.04 in 10.0 mi SE 8.1 mph - N/A   Clear
11:55 PM 57.2 °F - 37.4 °F 48% 30.04 in 10.0 mi SE 9.2 mph - N/A   Clear